| time (UTC) | temp F | wind direction | speed MPH | gust MPH | rain 1hr in | rain 24hr in | rain mn in | humidity % | barometer mb |
| 20260902140036 | 46 | 176 | 2.0 | 5.0 | 0.00 | 0.00 | 0.00 | 90 | 1011.1 |
| 20260902134532 | 45 | 169 | 3.0 | 5.0 | 0.00 | 0.00 | 0.00 | 89 | 1011.1 |
| 20260902133034 | 45 | 189 | 2.0 | 4.0 | 0.00 | 0.00 | 0.00 | 89 | 1011.0 |
| 20260902131538 | 44 | 166 | 2.0 | 4.0 | 0.00 | 0.00 | 0.00 | 88 | 1011.1 |
| 20260902130032 | 45 | 167 | 2.0 | 5.0 | 0.00 | 0.00 | 0.00 | 86 | 1011.1 |
| 20260902123038 | 45 | 172 | 3.0 | 6.0 | 0.00 | 0.00 | 0.00 | 85 | 1011.2 |
| 20260902121532 | 46 | 167 | 2.0 | 5.0 | 0.00 | 0.00 | 0.00 | 84 | 1011.3 |
| 20260902120029 | 48 | 117 | 1.0 | 4.0 | 0.00 | 0.00 | 0.00 | 82 | 1011.3 |
| 20260902114531 | 50 | 129 | 2.0 | 6.0 | 0.00 | 0.00 | 0.00 | 82 | 1011.4 |
| 20260902113035 | 50 | 42 | 5.0 | 11.0 | 0.00 | 0.00 | 0.00 | 83 | 1011.3 |
| 20260902111536 | 50 | 53 | 4.0 | 8.0 | 0.00 | 0.00 | 0.00 | 84 | 1011.2 |
| 20260902110036 | 50 | 51 | 5.0 | 9.0 | 0.00 | 0.00 | 0.00 | 86 | 1011.1 |
| 20260902104534 | 48 | 76 | 4.0 | 8.0 | 0.00 | 0.00 | 0.00 | 87 | 1011.3 |
| 20260902103029 | 46 | 104 | 3.0 | 7.0 | 0.00 | 0.00 | 0.00 | 87 | 1011.4 |
| 20260902100105 | 47 | 140 | 2.0 | 6.0 | 0.00 | 0.00 | 0.00 | 87 | 1011.5 |
| 20260902094610 | 47 | 229 | 1.0 | 7.0 | 0.00 | 0.00 | 0.00 | 86 | 1011.7 |
| 20260902090031 | 48 | 190 | 2.0 | 5.0 | 0.00 | 0.00 | 0.00 | 84 | 1011.8 |
| 20260902084535 | 48 | 208 | 2.0 | 7.0 | 0.00 | 0.00 | 0.00 | 83 | 1011.7 |
| 20260902083036 | 49 | 147 | 0.0 | 4.0 | 0.00 | 0.00 | 0.00 | 82 | 1011.7 |
| 20260902081535 | 50 | 194 | 1.0 | 5.0 | 0.00 | 0.00 | 0.00 | 82 | 1011.9 |
| 20260902080032 | 51 | 140 | 3.0 | 6.0 | 0.00 | 0.00 | 0.00 | 80 | 1011.9 |
| 20260902074530 | 51 | 96 | 1.0 | 5.0 | 0.00 | 0.00 | 0.00 | 77 | 1012.0 |
| 20260902070030 | 55 | 302 | 4.0 | 9.0 | 0.00 | 0.00 | 0.00 | 74 | 1012.2 |
| 20260902064532 | 56 | 288 | 5.0 | 16.0 | 0.00 | 0.00 | 0.00 | 74 | 1012.3 |
| 20260902063035 | 56 | 288 | 5.0 | 22.0 | 0.00 | 0.00 | 0.00 | 73 | 1012.5 |
| 20260902061537 | 56 | 270 | 5.0 | 17.0 | 0.00 | 0.00 | 0.00 | 73 | 1012.6 |
| 20260902060036 | 56 | 296 | 6.0 | 14.0 | 0.00 | 0.00 | 0.00 | 72 | 1012.7 |
| 20260902053036 | 56 | 291 | 5.0 | 14.0 | 0.00 | 0.00 | 0.00 | 73 | 1012.6 |
| 20260902051534 | 56 | 268 | 5.0 | 12.0 | 0.00 | 0.00 | 0.00 | 73 | 1012.4 |
| 20260902050034 | 57 | 287 | 7.0 | 14.0 | 0.00 | 0.00 | 0.00 | 73 | 1012.5 |
| 20260902044534 | 57 | 278 | 6.0 | 16.0 | 0.00 | 0.00 | 0.00 | 72 | 1012.3 |
| 20260902043108 | 57 | 296 | 7.0 | 16.0 | 0.00 | 0.00 | 0.00 | 72 | 1012.1 |
| 20260902041536 | 57 | 313 | 6.0 | 16.0 | 0.00 | 0.00 | 0.00 | 72 | 1012.3 |
| 20260902040034 | 57 | 316 | 6.0 | 14.0 | 0.00 | 0.00 | 0.00 | 71 | 1012.0 |
| 20260902034531 | 57 | 279 | 4.0 | 11.0 | 0.00 | 0.00 | 0.00 | 70 | 1011.8 |
| 20260902033106 | 57 | 301 | 3.0 | 8.0 | 0.00 | 0.00 | 0.00 | 70 | 1011.5 |
| 20260902031644 | 57 | 299 | 4.0 | 12.0 | 0.00 | 0.00 | 0.00 | 68 | 1011.4 |
| 20260902030030 | 58 | 324 | 3.0 | 8.0 | 0.00 | 0.00 | 0.00 | 67 | 1011.5 |
| 20260902024531 | 58 | 260 | 6.0 | 18.0 | 0.00 | 0.00 | 0.00 | 67 | 1011.8 |
| 20260902023031 | 58 | 259 | 4.0 | 11.0 | 0.00 | 0.00 | 0.00 | 67 | 1011.5 |
| 20260902021607 | 59 | 270 | 5.0 | 12.0 | 0.00 | 0.00 | 0.00 | 65 | 1011.6 |
| 20260902020035 | 60 | 266 | 3.0 | 12.0 | 0.00 | 0.00 | 0.00 | 64 | 1011.7 |
| 20260902014535 | 60 | 251 | 4.0 | 17.0 | 0.00 | 0.00 | 0.00 | 63 | 1011.5 |
| 20260902013037 | 61 | 267 | 3.0 | 13.0 | 0.00 | 0.00 | 0.00 | 63 | 1011.4 |
| 20260902010031 | 63 | 289 | 4.0 | 18.0 | 0.00 | 0.00 | 0.00 | 63 | 1011.1 |
| 20260902004534 | 64 | 291 | 6.0 | 16.0 | 0.00 | 0.00 | 0.00 | 64 | 1010.9 |
| 20260902003030 | 64 | 311 | 6.0 | 17.0 | 0.00 | 0.00 | 0.00 | 64 | 1010.8 |
| 20260902000031 | 64 | 331 | 7.0 | 16.0 | 0.00 | 0.00 | 0.00 | 65 | 1010.8 |
| 20260901234542 | 64 | 1 | 8.0 | 16.0 | 0.00 | 0.00 | 0.00 | 65 | 1010.9 |
| 20260901233035 | 65 | 339 | 7.0 | 16.0 | 0.00 | 0.00 | 0.00 | 63 | 1010.7 |
| 20260901231536 | 67 | 10 | 10.0 | 19.0 | 0.00 | 0.00 | 0.00 | 61 | 1010.6 |
| 20260901230035 | 68 | 18 | 8.0 | 14.0 | 0.00 | 0.00 | 0.00 | 60 | 1010.3 |
| 20260901224533 | 69 | 355 | 10.0 | 18.0 | 0.00 | 0.00 | 0.00 | 58 | 1010.2 |
| 20260901223035 | 71 | 344 | 8.0 | 14.0 | 0.00 | 0.00 | 0.00 | 58 | 1010.2 |
| 20260901221531 | 70 | 345 | 6.0 | 11.0 | 0.00 | 0.00 | 0.00 | 59 | 1010.2 |
| 20260901220108 | 69 | 21 | 9.0 | 18.0 | 0.00 | 0.00 | 0.00 | 59 | 1010.2 |
| 20260901214532 | 69 | 28 | 11.0 | 17.0 | 0.00 | 0.00 | 0.00 | 59 | 1010.3 |
| 20260901213035 | 69 | 16 | 11.0 | 16.0 | 0.00 | 0.00 | 0.00 | 59 | 1010.5 |
| 20260901211605 | 69 | 8 | 9.0 | 15.0 | 0.00 | 0.00 | 0.00 | 59 | 1010.6 |
| 20260901210030 | 69 | 7 | 9.0 | 15.0 | 0.00 | 0.00 | 0.00 | 59 | 1010.7 |
| 20260901204534 | 69 | 12 | 9.0 | 16.0 | 0.00 | 0.00 | 0.00 | 58 | 1010.8 |
| 20260901203036 | 68 | 19 | 9.0 | 16.0 | 0.00 | 0.00 | 0.00 | 58 | 1011.0 |
| 20260901201535 | 68 | 360 | 8.0 | 14.0 | 0.00 | 0.00 | 0.00 | 59 | 1011.2 |
| 20260901200032 | 67 | 10 | 9.0 | 14.0 | 0.00 | 0.00 | 0.00 | 59 | 1011.4 |
| 20260901194534 | 68 | 8 | 9.0 | 15.0 | 0.00 | 0.00 | 0.00 | 59 | 1011.5 |
| 20260901191537 | 67 | 16 | 7.0 | 12.0 | 0.00 | 0.00 | 0.00 | 61 | 1011.9 |
| 20260901190035 | 66 | 359 | 7.0 | 12.0 | 0.00 | 0.00 | 0.00 | 62 | 1012.0 |
| 20260901184534 | 65 | 358 | 8.0 | 13.0 | 0.00 | 0.00 | 0.00 | 63 | 1012.0 |
| 20260901183140 | 65 | 14 | 7.0 | 13.0 | 0.00 | 0.00 | 0.00 | 64 | 1012.2 |
| 20260901181533 | 64 | 360 | 7.0 | 14.0 | 0.00 | 0.00 | 0.00 | 66 | 1012.3 |
| 20260901180030 | 65 | 353 | 7.0 | 11.0 | 0.00 | 0.00 | 0.00 | 67 | 1012.3 |
| 20260901174536 | 63 | 359 | 4.0 | 11.0 | 0.00 | 0.00 | 0.00 | 71 | 1012.4 |
| 20260901173035 | 60 | 349 | 3.0 | 7.0 | 0.00 | 0.00 | 0.00 | 72 | 1012.5 |
| 20260901171534 | 60 | 339 | 4.0 | 9.0 | 0.00 | 0.00 | 0.00 | 73 | 1012.4 |
| 20260901170031 | 60 | 7 | 4.0 | 7.0 | 0.00 | 0.00 | 0.00 | 73 | 1012.4 |
| 20260901164531 | 58 | 2 | 2.0 | 4.0 | 0.00 | 0.00 | 0.00 | 75 | 1012.4 |
| 20260901161533 | 56 | 354 | 1.0 | 5.0 | 0.00 | 0.00 | 0.00 | 79 | 1012.3 |
| 20260901160031 | 55 | 40 | 0.0 | 3.0 | 0.00 | 0.00 | 0.00 | 80 | 1012.2 |
| 20260901154608 | 54 | 30 | 2.0 | 6.0 | 0.00 | 0.00 | 0.00 | 81 | 1012.1 |
| 20260901150037 | 48 | 159 | 3.0 | 6.0 | 0.00 | 0.00 | 0.00 | 84 | 1012.0 |
| 20260901144535 | 48 | 180 | 3.0 | 4.0 | 0.00 | 0.00 | 0.00 | 84 | 1011.9 |
| 20260901141536 | 48 | 180 | 3.0 | 4.0 | 0.00 | 0.00 | 0.00 | 81 | 1011.8 |